{"data":{"norad_id":53006,"epoch":"2026-09-19T01:22:27.117120Z","epoch_age_seconds":193478,"freshness":"STALE","line1":"1 53006U 22076W   26262.05725830  .00000065  00000+0  12774-4 0  9994","line2":"2 53006  53.1591 291.0507 0001499  77.4874 282.6297 15.35398896232240","mean_motion":15.35398896,"eccentricity":0.0001499,"inclination_deg":53.1591,"raan_deg":291.0507,"arg_perigee_deg":77.4874,"mean_anomaly_deg":282.6297,"bstar":1.2774e-5,"rev_number":23224,"period_min":93.78670283999,"perigee_km":458.71092335185,"apogee_km":460.76091765342,"semimajor_km":6837.8729205026,"source":"CELESTRAK","updated_at":"2026-09-20T09:00:40.142728Z"}}